Weather History for Namest Nad Oslav, Czech Republic

Change the Weather History Date:

Friday, November 15, 2013

  Actual Average Record
Temperature  
Mean Temperature 40 °F -  
Max Temperature 44 °F - - ()
Min Temperature 35 °F - - ()
Degree Days  
Heating Degree Days 26    
Moisture  
Dew Point 37 °F    
Average Humidity 91    
Maximum Humidity 100    
Minimum Humidity 81    
Precipitation  
Precipitation 0.00 in - - ()
Sea Level Pressure  
Sea Level Pressure 30.24 in    
Wind  
Wind Speed 2 mph ()    
Max Wind Speed 6 mph    
Max Gust Speed -    
Visibility 3.8 miles    
Events      
T = Trace of Precipitation, MM = Missing Value Source: Averaged Metar Reports

Daily Weather History Graph

Daily Weather History Graph

Search for Another Location

Airport:

Trip Planner

Search our weather history database for the weather conditions in past years. The results will help you decide how hot, cold, wet, or windy it might be!

Date:

Astronomy

Nov. 15, 2013 Rise Set
Actual Time 7:05 AM CET 4:14 PM CET
Civil Twilight 6:30 AM CET 4:48 PM CET
Nautical Twilight 5:52 AM CET 5:27 PM CET
Astronomical Twilight 5:14 AM CET 6:05 PM CET
Moon 3:09 PM CET (11/15) 4:33 AM CET (11/15)
Length of Visible Light 10h 18m
Length of Day
9h 08m
Waxing Gibbous, 95% of the Moon is Illuminated
Nov 15
Waxing Gibbous
Nov 17
Full
Nov 25
Last Quarter
Dec 3
New
Dec 9
First Quarter

Hourly Weather History & Observations

Time (CET) Temp. Windchill Dew Point Humidity Pressure Visibility Wind Dir Wind Speed Gust Speed Precip Events Conditions
12:00 AM 35.6 °F - 35.6 °F 100% 30.09 in 3.7 mi Calm Calm - N/A   Overcast
1:00 AM 35.6 °F - 35.6 °F 100% 30.12 in 3.7 mi Calm Calm - N/A   Overcast
2:00 AM 35.6 °F - 35.6 °F 100% 30.12 in 3.7 mi Calm Calm - N/A   Overcast
3:00 AM 35.6 °F - 35.6 °F 100% 30.12 in 3.1 mi Variable 1.2 mph - N/A   Overcast
4:00 AM 35.6 °F - 35.6 °F 100% 30.12 in 3.1 mi Calm Calm - N/A   Overcast
5:00 AM 35.6 °F - 35.6 °F 100% 30.15 in 3.1 mi Calm Calm - N/A   Overcast
6:00 AM 35.6 °F - 35.6 °F 100% 30.15 in 3.1 mi Variable 2.3 mph - N/A   Overcast
6:36 AM 35.6 °F - 35.6 °F 100% 30.18 in 1.7 mi Calm Calm - N/A   Overcast
7:00 AM 35.6 °F - 35.6 °F 100% 30.18 in 1.1 mi NE 2.3 mph - N/A   Overcast
8:00 AM 37.4 °F - 35.6 °F 93% 30.21 in 1.7 mi Variable 1.2 mph - N/A   Mostly Cloudy
8:43 AM 37.4 °F 34.9 °F 35.6 °F 93% 30.24 in 1.9 mi East 3.5 mph - N/A   Overcast
9:00 AM 37.4 °F 34.9 °F 37.4 °F 100% 30.24 in 1.9 mi East 3.5 mph - N/A   Overcast
10:00 AM 39.2 °F - 37.4 °F 93% 30.27 in 1.9 mi Variable 2.3 mph - N/A   Overcast
10:48 AM 41.0 °F 39.0 °F 37.4 °F 87% 30.24 in 2.8 mi East 3.5 mph - N/A   Mostly Cloudy
11:00 AM 41.0 °F 38.0 °F 37.4 °F 87% 30.24 in 2.8 mi East 4.6 mph - N/A   Mostly Cloudy
12:00 PM 41.0 °F 37.1 °F 37.4 °F 87% 30.27 in 3.7 mi East 5.8 mph - N/A   Mostly Cloudy
1:00 PM 42.8 °F 40.1 °F 37.4 °F 81% 30.27 in 5.0 mi ESE 4.6 mph - N/A   Overcast
2:00 PM 42.8 °F 40.1 °F 37.4 °F 81% 30.27 in 5.6 mi East 4.6 mph - N/A   Overcast
3:00 PM 42.8 °F 41.1 °F 37.4 °F 81% 30.27 in 5.6 mi East 3.5 mph - N/A   Overcast
4:00 PM 42.8 °F 40.1 °F 37.4 °F 81% 30.30 in 5.6 mi ENE 4.6 mph - N/A   Overcast
5:00 PM 42.8 °F - 37.4 °F 81% 30.30 in 5.6 mi East 2.3 mph - N/A   Overcast
6:00 PM 42.8 °F - 39.2 °F 87% 30.33 in 5.0 mi NE 2.3 mph - N/A   Overcast
7:00 PM 44.6 °F - 39.2 °F 81% 30.33 in 5.6 mi ENE 2.3 mph - N/A   Overcast
8:00 PM 42.8 °F - 39.2 °F 87% 30.36 in 5.6 mi Variable 2.3 mph - N/A   Overcast
9:00 PM 42.8 °F 40.1 °F 39.2 °F 87% 30.36 in 5.0 mi ENE 4.6 mph - N/A   Overcast
10:00 PM 42.8 °F - 39.2 °F 87% 30.33 in 5.0 mi East 2.3 mph - N/A   Overcast
11:00 PM 42.8 °F 40.1 °F 39.2 °F 87% 30.36 in 5.0 mi ENE 4.6 mph - N/A   Overcast